Weather History for Danbury, CT

Change the Weather History Date:

Wednesday, February 5, 2014

  Actual Average Record
Temperature  
Mean Temperature 28 °F -  
Max Temperature 30 °F 34 °F 67 °F (1991)
Min Temperature 25 °F 17 °F -4 °F (1978)
Degree Days  
Heating Degree Days 38    
Moisture  
Dew Point 24 °F    
Average Humidity 84    
Maximum Humidity 93    
Minimum Humidity 72    
Precipitation  
Precipitation 1.14 in - - ()
Sea Level Pressure  
Sea Level Pressure 29.88 in    
Wind  
Wind Speed 4 mph (NNE)    
Max Wind Speed 12 mph    
Max Gust Speed 16 mph    
Visibility 3 miles    
Events Fog , Snow    
Averages and records for this station are not official NWS values.
T = Trace of Precipitation, MM = Missing Value Source: NWS Daily Summary

Daily Weather History Graph

Daily Weather History Graph

Search for Another Location

Airport:

Trip Planner

Search our weather history database for the weather conditions in past years. The results will help you decide how hot, cold, wet, or windy it might be!

Date:

Astronomy

Feb. 05, 2014 Rise Set
Actual Time 7:01 AM EST 5:15 PM EST
Civil Twilight 6:32 AM EST 5:44 PM EST
Nautical Twilight 5:59 AM EST 6:17 PM EST
Astronomical Twilight 5:27 AM EST 6:49 PM EST
Moon 10:09 AM EST (2/5) No Moon Set
Length of Visible Light 11h 12m
Length of Day
10h 14m
Waxing Crescent, 39% of the Moon is Illuminated
Feb 5
Waxing Crescent
Feb 6
First Quarter
Feb 14
Full
Feb 22
Last Quarter
Mar 1
New

Hourly Weather History & Observations

Time (EST) Temp. Windchill Dew Point Humidity Pressure Visibility Wind Dir Wind Speed Gust Speed Precip Events Conditions
12:53 AM 27.0 °F - 19.9 °F 75% 30.27 in 8.0 mi Calm Calm - N/A   Overcast
1:53 AM 27.0 °F 20.5 °F 19.9 °F 75% 30.22 in 4.0 mi NE 5.8 mph - 0.00 in Snow Light Snow
2:05 AM 26.6 °F 22.6 °F 19.4 °F 74% 30.20 in 2.5 mi ENE 3.5 mph - 0.00 in Snow Light Snow
2:12 AM 26.6 °F - 19.4 °F 74% 30.22 in 3.0 mi Calm Calm - 0.00 in Snow Light Snow
2:21 AM 26.6 °F 22.6 °F 21.2 °F 80% 30.21 in 1.8 mi East 3.5 mph - 0.00 in Snow Light Snow
2:30 AM 26.6 °F 22.6 °F 21.2 °F 80% 30.21 in 0.8 mi East 3.5 mph - 0.01 in Snow Light Snow
2:42 AM 26.6 °F 19.1 °F 21.2 °F 80% 30.20 in 0.5 mi NE 6.9 mph - 0.03 in Fog , Snow Snow
2:53 AM 26.1 °F 20.5 °F 21.9 °F 84% 30.20 in 0.5 mi NE 4.6 mph - 0.05 in Fog , Snow Snow
3:50 AM 26.6 °F 22.6 °F 21.2 °F 80% 30.16 in 0.2 mi NE 3.5 mph - 0.09 in Fog , Snow Heavy Snow
3:53 AM 25.0 °F 20.7 °F 21.9 °F 88% 30.18 in 0.2 mi NE 3.5 mph - 0.10 in Fog , Snow Heavy Snow
4:53 AM 25.0 °F 18.1 °F 21.9 °F 88% 30.11 in 0.2 mi NE 5.8 mph - 0.25 in Fog , Snow Heavy Snow
5:53 AM 26.1 °F 20.5 °F 23.0 °F 88% 30.10 in 0.2 mi ENE 4.6 mph - 0.20 in Fog , Snow Heavy Snow
6:39 AM 26.6 °F 20.0 °F 23.0 °F 86% 30.09 in 0.5 mi NNE 5.8 mph - 0.14 in Fog , Snow Light Snow
6:53 AM 26.1 °F 21.9 °F 23.0 °F 88% 30.10 in 1.0 mi ENE 3.5 mph - 0.16 in Snow Light Snow
7:06 AM 26.6 °F 22.6 °F 23.0 °F 86% 30.07 in 1.0 mi NE 3.5 mph - 0.02 in Snow Light Snow
7:19 AM 26.6 °F 19.1 °F 23.0 °F 86% 30.05 in 0.8 mi NE 6.9 mph - 0.06 in Snow Light Snow
7:51 AM 26.6 °F 18.2 °F 21.2 °F 80% 30.01 in 1.0 mi ENE 8.1 mph - 0.14 in Snow Light Snow
7:53 AM 26.1 °F 18.4 °F 21.9 °F 84% 30.03 in 1.0 mi ENE 6.9 mph - 0.15 in Snow Light Snow
7:57 AM 26.6 °F 18.2 °F 23.0 °F 86% 30.00 in 0.8 mi NE 8.1 mph - 0.00 in Snow Light Snow
8:10 AM 26.6 °F 16.8 °F 21.2 °F 80% 29.98 in 1.0 mi ENE 10.4 mph - 0.02 in   Overcast
8:44 AM 26.6 °F 17.5 °F 21.2 °F 80% 29.96 in 1.2 mi ENE 9.2 mph - 0.08 in   Overcast
8:53 AM 27.0 °F 18.7 °F 21.9 °F 81% 29.98 in 1.2 mi ENE 8.1 mph - 0.09 in   Overcast
9:08 AM 26.6 °F 16.2 °F 23.0 °F 86% 29.93 in 1.0 mi ENE 11.5 mph - 0.04 in   Overcast
9:25 AM 28.4 °F 20.4 °F 24.8 °F 86% 29.90 in 1.5 mi ENE 8.1 mph - 0.06 in   Overcast
9:35 AM 28.4 °F 19.7 °F 24.8 °F 86% 29.88 in 2.0 mi NE 9.2 mph - 0.07 in   Overcast
9:53 AM 28.0 °F 20.0 °F 24.1 °F 85% 29.88 in 2.5 mi NE 8.1 mph - 0.07 in   Overcast
10:19 AM 28.4 °F 19.1 °F 24.8 °F 86% 29.84 in 3.0 mi ENE 10.4 mph 16.1 mph 0.00 in   Overcast
10:53 AM 28.9 °F 19.2 °F 25.0 °F 85% 29.82 in 6.0 mi East 11.5 mph - 0.00 in   Overcast
11:53 AM 28.9 °F 21.9 °F 25.0 °F 85% 29.73 in 7.0 mi NE 6.9 mph - 0.00 in   Overcast
12:53 PM 28.9 °F 23.9 °F 25.0 °F 85% 29.68 in 2.5 mi ENE 4.6 mph - 0.00 in   Overcast
1:06 PM 30.2 °F 25.4 °F 26.6 °F 86% 29.67 in 1.8 mi Variable 4.6 mph - 0.01 in   Overcast
1:35 PM 30.2 °F 24.3 °F 26.6 °F 86% 29.66 in 2.0 mi NNE 5.8 mph - 0.02 in   Overcast
1:53 PM 30.0 °F - 26.1 °F 85% 29.69 in 2.0 mi Calm Calm - 0.03 in   Overcast
2:29 PM 30.2 °F - 26.6 °F 86% 29.68 in 2.0 mi Calm Calm - 0.02 in Snow Light Snow
2:32 PM 30.2 °F - 26.6 °F 86% 29.68 in 1.8 mi Calm Calm - 0.02 in Snow Light Snow
2:50 PM 30.2 °F 26.7 °F 26.6 °F 86% 29.66 in 1.8 mi ENE 3.5 mph - 0.03 in Snow Light Snow
2:53 PM 30.0 °F 26.5 °F 26.1 °F 85% 29.67 in 2.0 mi NE 3.5 mph - 0.03 in Snow Light Snow
3:01 PM 30.2 °F - 26.6 °F 86% 29.66 in 1.8 mi Calm Calm - 0.00 in Snow Light Snow
3:09 PM 30.2 °F - 26.6 °F 86% 29.65 in 1.0 mi Calm Calm - 0.00 in Snow Light Snow
3:16 PM 30.2 °F - 26.6 °F 86% 29.65 in 1.0 mi Calm Calm - 0.00 in Snow Light Snow
3:25 PM 30.2 °F 25.4 °F 26.6 °F 86% 29.66 in 2.0 mi NNW 4.6 mph - 0.00 in Snow Light Snow
3:40 PM 30.2 °F 25.4 °F 26.6 °F 86% 29.65 in 4.0 mi NNE 4.6 mph - 0.00 in   Overcast
3:53 PM 30.9 °F 26.2 °F 26.1 °F 82% 29.67 in 6.0 mi North 4.6 mph - 0.00 in   Haze
4:00 PM 30.2 °F 24.3 °F 26.6 °F 86% 29.65 in 7.0 mi North 5.8 mph - N/A   Overcast
4:53 PM 30.9 °F 27.5 °F 27.0 °F 85% 29.67 in 3.0 mi North 3.5 mph - N/A   Overcast
5:38 PM 30.2 °F 24.3 °F 26.6 °F 86% 29.68 in 2.0 mi North 5.8 mph - 0.00 in Snow Light Snow
5:50 PM 30.2 °F 22.6 °F 26.6 °F 86% 29.68 in 5.0 mi North 8.1 mph - 0.00 in Snow Light Snow
5:53 PM 30.0 °F 24.1 °F 26.1 °F 85% 29.70 in 5.0 mi North 5.8 mph - 0.00 in   Overcast
6:22 PM 30.2 °F 25.4 °F 26.6 °F 86% 29.70 in 2.0 mi NW 4.6 mph - 0.00 in Snow Light Snow
6:31 PM 30.2 °F - 26.6 °F 86% 29.71 in 1.2 mi Calm Calm - 0.00 in Snow Light Snow
6:39 PM 28.4 °F 24.6 °F 26.6 °F 93% 29.71 in 1.0 mi NW 3.5 mph - 0.00 in Snow Light Snow
6:53 PM 28.9 °F 25.2 °F 26.1 °F 89% 29.74 in 1.5 mi NNW 3.5 mph - 0.01 in Snow Light Snow
7:06 PM 28.4 °F 24.6 °F 26.6 °F 93% 29.73 in 2.0 mi NW 3.5 mph - 0.00 in Snow Light Snow
7:39 PM 28.4 °F 24.6 °F 24.8 °F 86% 29.75 in 4.0 mi WNW 3.5 mph - 0.00 in Snow Light Snow
7:53 PM 28.9 °F 25.2 °F 25.0 °F 85% 29.78 in 7.0 mi WNW 3.5 mph - 0.00 in   Overcast
8:00 PM 28.4 °F - 24.8 °F 86% 29.76 in 7.0 mi Calm Calm - N/A   Overcast
8:36 PM 28.4 °F - 23.0 °F 80% 29.78 in 9.0 mi Calm Calm - N/A   Overcast
8:53 PM 28.0 °F 22.8 °F 23.0 °F 81% 29.80 in 9.0 mi NW 4.6 mph - N/A   Overcast
9:53 PM 27.0 °F 19.5 °F 21.9 °F 81% 29.86 in 10.0 mi NW 6.9 mph - N/A   Overcast
10:19 PM 26.6 °F 17.5 °F 21.2 °F 80% 29.86 in 10.0 mi NW 9.2 mph - N/A   Overcast
10:53 PM 27.0 °F 18.7 °F 19.9 °F 75% 29.92 in 9.0 mi NW 8.1 mph - N/A   Overcast
11:53 PM 25.0 °F 16.3 °F 17.1 °F 72% 29.97 in 10.0 mi NNW 8.1 mph - N/A   Partly Cloudy